Regional Weather Roundup
Issued by NWS Sterling, VA

Home | Current Version | Previous Version | Graphics & Text | Print | Product List | Glossary On
Versions: 1 2 3 4 5 6 7 8 9 10 11 12 13 14 15 16 17 18 19 20 21 22 23 24 25 26 27
000
ASUS41 KLWX 252311
RWRLWX

REGIONAL WEATHER ROUNDUP
NATIONAL WEATHER SERVICE BALTIMORE MD/WASHINGTON DC
700 PM EDT TUE APR 25 2017

Note: "FAIR" indicates few or no clouds below 12,000 feet
with no significant weather and/or obstructions to visibility.
 TC=TEMPERATURE CELSIUS

 * =Non NWS site. Station does not report precipitation (e.g. rain,
    snow, etc.), thunder, or fog.

DCZ001-MDZ009-015-VAZ040>042-051-053>054-260000-
WASHINGTON METRO

CITY           SKY/WX    TMP DP  RH WIND       PRES   REMARKS
WASHINGTON NAT CLOUDY    61  58  90 NE14      29.73F
DULLES         CLOUDY    59  56  89 NE8       29.74S
ANDREWS AFB    CLOUDY    59  57  94 NE13      29.72R
FT BELVOIR     CLOUDY    60  56  87 N5        29.72S
QUANTICO       CLOUDY    61  60  97 NE10      29.73S
COLLEGE PARK*  CLOUDY    57  55  93 NE7       29.74R
LEESBURG*      CLOUDY    59  59 100 N8        29.76F FOG
MANASSAS*        N/A     59  57  93 N7        29.74S

$$

MDZ006>007-011-014-260000-
BALTIMORE METRO

CITY           SKY/WX    TMP DP  RH WIND       PRES   REMARKS
BWI AIRPORT    CLOUDY    58  57  97 NE14G24   29.74F FOG
MD SCIENCE CTR   N/A     59  55  87 MISG      29.75F
MARTIN STATE   CLOUDY    59  57  94 N9        29.77F FOG
ANNAPOLIS      LGT RAIN  60  58  92 NE10      29.73S FOG
FORT MEADE*    CLOUDY    55  54  94 NE9G17    29.77R

$$

MDZ012-015-019>023-260000-
MARYLAND EASTERN SHORE

CITY           SKY/WX    TMP DP  RH WIND       PRES   REMARKS
OCEAN CITY     CLOUDY    61  61 100 E16G24    29.65F
SALISBURY      CLOUDY    62  62 100 NE6       29.66F
BAY BRIDGE AP* CLOUDY    59  57  94 NE9       29.72S FOG
CAMBRIDGE*     CLOUDY    61  59  94 NE9       29.69S FOG
EASTON*        CLOUDY    61  59  94 NE15G22   29.74F FOG

$$

MDZ017>025-260000-
SOUTHERN MARYLAND

CITY           SKY/WX    TMP DP  RH WIND       PRES   REMARKS
PATUXENT RIVER CLOUDY    61  61 100 N8        29.69R
ST INIGOES     LGT RAIN  62  60  93 N8        29.67R FOG
LEONARDTOWN*   CLOUDY    59  57  94 CALM      29.71R

$$

MDZ003>005-260000-
NORTH CENTRAL MARYLAND

CITY           SKY/WX    TMP DP  RH WIND       PRES   REMARKS
FREDERICK*     CLOUDY   N/A N/A N/A N9        29.78F FOG
HAGERSTOWN APT CLOUDY    58  55  90 N8        29.78F
WESTMINSTER*   CLOUDY    57  57 100 E12       29.77F FOG

$$

MDZ501>502-260000-
WESTERN MARYLAND

CITY           SKY/WX    TMP DP  RH WIND       PRES   REMARKS
OAKLAND*       FOG       48  48 100 E5        29.82S VSB 1
CUMBERLAND*    CLOUDY    57  55  94 NW3       29.85R

$$

VAZ025>031-260000-
SHENANDOAH VALLEY

CITY           SKY/WX    TMP DP  RH WIND       PRES   REMARKS
WINCHESTER*    DRIZZLE   54  54 100 N6        29.77S
FRONT ROYAL*   CLOUDY    54  54 100 N5        29.77S
LURAY*         CLOUDY    55  55 100 N6        29.77S
NEW MARKET*    CLOUDY    55  53  92 N7        29.78R
STAUNTON*      CLOUDY    55  52  92 N9G17     29.79R
WAYNESBORO*    CLOUDY    54  54 100 N9        29.77R

$$

WVZ021-048>050-054>055-260000-
EASTERN WEST VIRGINIA PANHANDLE

CITY           SKY/WX    TMP DP  RH WIND       PRES   REMARKS
MARTINSBURG    FOG       56  54  93 N7        29.77F VSB 3/4
PETERSBURG*    DRIZZLE   56  55  96 NW3       29.82R

$$

VAZ036>039-050-260000-
CENTRAL FOOTHILLS

CITY           SKY/WX    TMP DP  RH WIND       PRES   REMARKS
CHARLOTTESVILL CLOUDY    60  56  86 NE8       29.73S
CULPEPER*      CLOUDY    60  59  99 N7        29.74S
ORANGE*        CLOUDY    59  55  88 N10G16    29.73S
GORDONSVILLE*  CLOUDY    58  58  99 N5        29.73R FOG
WARRENTON*     CLOUDY    60  56  88 N9        29.73S FOG

$$

VAZ055>057-260000-
NORTH AND CENTRAL PIEDMONT

CITY           SKY/WX    TMP DP  RH WIND       PRES   REMARKS
FREDERICKSBRG* CLOUDY    60  60 100 N8G16     29.70S
STAFFORD*      CLOUDY    59  59 100 N8        29.76R

$$

NCZ024-NYZ072-PAZ021-071-VAZ022-071-260000-
OTHER REGIONAL OBSERVATIONS

CITY           SKY/WX    TMP DP  RH WIND       PRES   REMARKS
NEW YORK CITY  LGT RAIN  52  51  97 E17G28    29.93F FOG
PHILADELPHIA   CLOUDY    56  54  93 NE16G25   29.81F
PITTSBURGH     CLOUDY    59  57  93 E10       29.81S
ROANOKE        CLOUDY    62  54  74 N9        29.76S
RICHMOND       CLOUDY    66  63  90 N10       29.65F
RALEIGH        CLOUDY    67  59  75 NW7       29.67R

$$

ANZ530>537-260000-
MARINE OBSERVATIONS

STATION/POSITION TIME  TEMP    WIND        PRES
                       AIR SEA DIR/SP/G
                 (UTC) (F)     (DEG/KT/KT) (MB)
THOMAS PT LIGHT  2300   58 56   50/ 16/ 19   N/A
BALT KEY BRIDGE  2248   58      40/ 19/ 23 1006.6F
COVE POINT       2248   59      20/ 10/ 14 1005.9R
LEWISETTA        2248   62 60   10/  6/  9 1004.4R
SOLOMONS ISLAND  2248   61 60   20/  6/ 11   N/A
PINEY POINT      2248           40/  7/  8   N/A

$$





USA.gov is the U.S. government's official web portal to all federal, state and local government web resources and services.